This is the latest recevied weather packets stored in our database for station/object LA3SP-1. If no packets are shown the sender has not sent any weather packets the latest 10 day(s).
| Time | Temp. | Humidity | Pressure | Rain* | Wind** | Luminosity | Snow |
|---|---|---|---|---|---|---|---|
| 1778180331 | 1.67° C | 45% | 1012.5 hPa | 0 mm | - | - | - |
| 1778179729 | 2.22° C | 44% | 1012.3 hPa | 0 mm | - | - | - |
| 1778179128 | 2.78° C | 44% | 1012.4 hPa | 0 mm | - | - | - |
| 1778178526 | 2.78° C | 42% | 1012.4 hPa | 0 mm | - | - | - |
| 1778177925 | 3.33° C | 41% | 1012.3 hPa | 0 mm | - | - | - |
| 1778176723 | 4.44° C | 40% | 1012.4 hPa | 0 mm | - | - | - |
| 1778176121 | 5° C | 40% | 1012.5 hPa | 0 mm | - | - | - |
| 1778175520 | 5° C | 41% | 1012.5 hPa | 0 mm | - | - | - |
| 1778174918 | 5° C | 41% | 1012.4 hPa | 0 mm | - | - | - |
| 1778174317 | 5° C | 40% | 1012.2 hPa | 0 mm | - | - | - |
| 1778172513 | 5.56° C | 42% | 1012.2 hPa | 0 mm | - | - | - |
| 1778171911 | 6.11° C | 42% | 1012.2 hPa | 0 mm | - | - | - |
| 1778171310 | 6.11° C | 41% | 1012.1 hPa | 0 mm | - | - | - |
| 1778170107 | 6.11° C | 41% | 1012.1 hPa | 0 mm | - | - | - |
| 1778168303 | 6.11° C | 40% | 1012.1 hPa | 0 mm | - | - | - |
| 1778167702 | 6.67° C | 39% | 1012.2 hPa | 0 mm | - | - | - |
| 1778167100 | 6.11° C | 39% | 1012.1 hPa | 0 mm | - | - | - |
| 1778166499 | 6.67° C | 38% | 1012.1 hPa | 0 mm | - | - | - |
| 1778165897 | 7.22° C | 39% | 1011.9 hPa | 0 mm | - | - | - |
| 1778165296 | 7.22° C | 39% | 1011.9 hPa | 0 mm | - | - | - |
| 1778164093 | 7.78° C | 39% | 1011.9 hPa | 0 mm | - | - | - |
| 1778162289 | 7.22° C | 42% | 1011.7 hPa | 0 mm | - | - | - |
| 1778161087 | 6.67° C | 40% | 1012 hPa | 0 mm | - | - | - |
| 1778160485 | 6.67° C | 40% | 1012 hPa | 0 mm | - | - | - |
| 1778159282 | 8.33° C | 39% | 1012 hPa | 0 mm | - | - | - |
* Rain latest 24 hours (hover to see other rain measurements)
** Current wind speed in m/s (hover to see current wind gust speed)